Weather History for Pierre, SD

Change the Weather History Date:

Saturday, August 3, 2013

  Actual Average Record
Temperature  
Mean Temperature 66 °F 76 °F  
Max Temperature 78 °F 90 °F 110 °F (1947)
Min Temperature 54 °F 63 °F 42 °F (1978)
Degree Days  
Heating Degree Days 0 0  
Month to date heating degree days 0 0  
Since 1 June heating degree days 69 59  
Since 1 July heating degree days 9 6  
Cooling Degree Days 1 11  
Month to date cooling degree days 10 33  
Year to date cooling degree days 417 526  
Since 1 June cooling degree days 395 494  
Growing Degree Days 16 (Base 50)    
Moisture  
Dew Point 56 °F    
Average Humidity 74    
Maximum Humidity 100    
Minimum Humidity 47    
Precipitation  
Precipitation 0.00 in 0.08 in 2.36 in (2007)
Month to date precipitation 0.36 0.24  
Year to date precipitation 14.76 13.62  
Sea Level Pressure  
Sea Level Pressure 30.12 in    
Wind  
Wind Speed 10 mph (ESE)    
Max Wind Speed 18 mph    
Max Gust Speed 24 mph    
Visibility 9 miles    
Events      
T = Trace of Precipitation, MM = Missing Value Source: NWS Daily Summary

Daily Weather History Graph

Daily Weather History Graph

Search for Another Location

Airport:

Trip Planner

Search our weather history database for the weather conditions in past years. The results will help you decide how hot, cold, wet, or windy it might be!

Date:

Astronomy

Aug. 03, 2013 Rise Set
Actual Time 6:30 AM CDT 9:03 PM CDT
Civil Twilight 5:57 AM CDT 9:35 PM CDT
Nautical Twilight 5:16 AM CDT 10:16 PM CDT
Astronomical Twilight 4:29 AM CDT 11:03 PM CDT
Moon 3:40 AM CDT (8/3) 6:47 PM CDT (8/3)
Length of Visible Light 15h 38m
Length of Day
14h 32m
Waning Crescent, 9% of the Moon is Illuminated
Aug 3
Waning Crescent
Aug 6
New
Aug 14
First Quarter
Aug 20
Full
Aug 28
Last Quarter

Hourly Weather History & Observations

Time (CDT) Temp. Dew Point Humidity Pressure Visibility Wind Dir Wind Speed Gust Speed Precip Events Conditions
12:53 AM 57.9 °F 55.9 °F 93% 30.09 in 8.0 mi SE 3.5 mph - N/A   Clear
1:53 AM 55.9 °F 55.0 °F 97% 30.10 in 9.0 mi Calm Calm - N/A   Clear
2:53 AM 54.0 °F 54.0 °F 100% 30.10 in 5.0 mi Calm Calm - N/A   Clear
3:53 AM 55.0 °F 54.0 °F 96% 30.10 in 5.0 mi ENE 5.8 mph - N/A   Clear
4:53 AM 57.0 °F 55.0 °F 93% 30.10 in 9.0 mi ESE 4.6 mph - N/A   Scattered Clouds
5:53 AM 55.9 °F 55.0 °F 97% 30.11 in 9.0 mi Calm Calm - N/A   Clear
6:53 AM 57.9 °F 55.9 °F 93% 30.12 in 7.0 mi ESE 5.8 mph - N/A   Clear
7:53 AM 59.0 °F 57.9 °F 96% 30.13 in 8.0 mi East 8.1 mph - N/A   Clear
8:53 AM 61.0 °F 59.0 °F 93% 30.11 in 8.0 mi East 10.4 mph - N/A   Clear
9:53 AM 66.9 °F 59.0 °F 76% 30.11 in 10.0 mi East 15.0 mph - N/A   Clear
10:53 AM 68.0 °F 55.0 °F 63% 30.14 in 10.0 mi ESE 15.0 mph - N/A   Overcast
11:53 AM 72.0 °F 53.1 °F 51% 30.16 in 10.0 mi SE 15.0 mph 21.9 mph N/A   Overcast
12:53 PM 75.0 °F 55.0 °F 50% 30.15 in 10.0 mi ESE 18.4 mph 23.0 mph N/A   Mostly Cloudy
1:53 PM 75.9 °F 55.0 °F 48% 30.15 in 10.0 mi ESE 17.3 mph - N/A   Partly Cloudy
2:53 PM 77.0 °F 55.9 °F 48% 30.15 in 10.0 mi SE 13.8 mph 23.0 mph N/A   Clear
3:53 PM 77.0 °F 57.0 °F 50% 30.14 in 10.0 mi ESE 15.0 mph - N/A   Scattered Clouds
4:53 PM 77.0 °F 57.0 °F 50% 30.13 in 10.0 mi ESE 12.7 mph - N/A   Clear
5:53 PM 77.0 °F 57.9 °F 52% 30.12 in 10.0 mi SE 15.0 mph - N/A   Partly Cloudy
6:53 PM 75.9 °F 57.0 °F 52% 30.12 in 10.0 mi ESE 16.1 mph - N/A   Clear
7:53 PM 73.0 °F 57.0 °F 57% 30.11 in 10.0 mi ESE 12.7 mph - N/A   Clear
8:53 PM 69.1 °F 57.9 °F 68% 30.12 in 10.0 mi SE 9.2 mph - N/A   Clear
9:53 PM 66.9 °F 57.0 °F 70% 30.13 in 10.0 mi SE 11.5 mph - N/A   Clear
10:53 PM 66.0 °F 54.0 °F 65% 30.12 in 10.0 mi SE 10.4 mph - N/A   Clear
11:53 PM 66.9 °F 52.0 °F 59% 30.14 in 10.0 mi SE 10.4 mph - N/A   Overcast